Regional Weather Roundup
Issued by NWS

Home | Current Version | Previous Version | Text Only | Print | Product List | Glossary Off
Versions: 1 2 3 4 5 6 7 8 9 10 11 12 13 14 15 16 17 18 19 20 21 22 23 24 25 26 27 28

298
ASUS45 KCYS 220210
RWRWY

WYOMING REGIONAL WEATHER ROUNDUP
NATIONAL WEATHER SERVICE CHEYENNE WY
800 PM MDT THU MAY 21 2015

NOTE:  "FAIR" INDICATES FEW OR NO CLOUDS BELOW 12,000 FEET
WITH NO SIGNIFICANT WEATHER AND/OR OBSTRUCTIONS TO VISIBILITY.

WYZ001-220300-
YELLOWSTONE NATIONAL PARK

CITY           SKY/WX    TMP DP  RH WIND       PRES   REMARKS
LK YELLOWSTONE   N/A     46  34  62 VRB3      30.07S
W YELLOWSTONE  NOT AVBL

$$
WYZ002>013-054>058-071-098>099-220300-
NORTHERN WYOMING

CITY           SKY/WX    TMP DP  RH WIND       PRES   REMARKS
JACKSON        PTCLDY    54  37  54 SW15      29.97R
CODY           FAIR      57  43  58 W7        29.99R
GREYBULL       FAIR      67  35  30 CALM      29.93R
WORLAND        FAIR      62  42  47 SE16G25   29.94R
SHERIDAN       MOCLDY    57  42  57 SE12      30.01S
BUFFALO        CLOUDY    54  42  64 SE15      30.07R
GILLETTE       FAIR      53  41  63 SE20      30.09R
HULETT         FAIR      55  39  54 S9        30.11R
NEWCASTLE      CLOUDY    52  37  58 SE14G22   30.12F

$$
WYZ014>020-022>026-101>103-220300-
CENTRAL WYOMING

CITY           SKY/WX    TMP DP  RH WIND       PRES   REMARKS
BIG PINEY      CLOUDY    46  41  82 SW8       30.04F
PINEDALE       CLOUDY    45  41  87 SE7       30.06S
DUBOIS         FAIR      50  37  62 SE17G23   30.02R THUNDER
LANDER         LGT RAIN  49  44  83 SE12      29.99R
RIVERTON         N/A     50  43  77 MISG      30.03R
CASPER         FAIR      53  43  68 N5        30.03S
DOUGLAS        FAIR      50  42  74 SE14      30.07S

$$
WYZ021-027>030-104>119-220300-
SOUTHERN WYOMING

CITY           SKY/WX    TMP DP  RH WIND       PRES   REMARKS
EVANSTON       CLOUDY    46  40  79 E7        30.03R
KEMMERER       CLOUDY    43  37  81 N12G20    30.03F
FORT BRIDGER   LGT RAIN  46  45  93 NW8       30.07R
ROCK SPRINGS   CLOUDY    49  40  71 NE14      30.00S
DIXON          MOCLDY    56  40  53 NW20G26   30.00R
RAWLINS        FAIR      48  40  73 NE13      30.03F
SARATOGA       FAIR      52  37  58 CALM      30.04S
LARAMIE        MOCLDY    44  39  82 SE20      30.10R
CHEYENNE       CLOUDY    48  43  82 SE14G23   30.11S
TORRINGTON     CLOUDY    52  44  74 SE12      30.09S
PINE BLUFFS    CLOUDY    50  45  81 SE15G22   30.12S

$$



USA.gov is the U.S. government's official web portal to all federal, state and local government web resources and services.